Hamilton, OH

2:42 PM EDT on April 27, 2017 (GMT -0400)
Butler County Regional

Weather History for KHAO - February, 2014

Change the Weather History Date:

Thursday, February 6, 2014

  Actual Average (KLUK) Record (KLUK)
Temperature  
Mean Temperature 16 °F -  
Max Temperature 25 °F 38 °F 66 °F (2008)
Min Temperature 7 °F 22 °F -4 °F (1977)
Degree Days  
Heating Degree Days 49    
Moisture  
Dew Point 11 °F    
Average Humidity 72    
Maximum Humidity 92    
Minimum Humidity 62    
Precipitation  
Precipitation 0.00 in - - ()
Sea Level Pressure  
Sea Level Pressure 30.44 in    
Wind  
Wind Speed 8 mph (WNW)    
Max Wind Speed 14 mph    
Max Gust Speed 18 mph    
Visibility 9 miles    
Events Snow    
Averages and records for this station are not official NWS values.
T = Trace of Precipitation, MM = Missing Value Source: NWS Daily Summary

Daily Weather History Graph

Daily Weather History Graph

Search for Another Location

Airport or City:

Trip Planner

Search our weather history database for the weather conditions in past years. The results will help you decide how hot, cold, wet, or windy it might be!

Date:

Astronomy

Feb. 06, 2014 Rise Set
Actual Time 7:40 AM EST 6:04 PM EST
Civil Twilight 7:12 AM EST 6:32 PM EST
Nautical Twilight 6:40 AM EST 7:04 PM EST
Astronomical Twilight 6:09 AM EST 7:35 PM EST
Moon 11:36 AM EST (2/6) 12:55 AM EST (2/6)
Length of Visible Light 11h 20m
Length of Day
10h 24m
Waxing Crescent, 49% of the Moon is Illuminated
Feb 6
Waxing Crescent
Feb 6
First Quarter
Feb 14
Full
Feb 22
Last Quarter
Mar 1
New

Hourly Weather History & Observations

Time (EST) Temp. Windchill Dew Point Humidity Pressure Visibility Wind Dir Wind Speed Gust Speed Precip Events Conditions
12:53 AM 24.1 °F 15.2 °F 18.0 °F 77% 30.41 in 10.0 mi NW 8.1 mph - N/A   Overcast
1:53 AM 23.0 °F 15.8 °F 19.0 °F 85% 30.42 in 7.0 mi NW 5.8 mph - N/A   Overcast
2:21 AM 23.0 °F 13.1 °F 19.0 °F 85% 30.39 in 5.0 mi WNW 9.2 mph - 0.00 in Snow Light Snow
2:44 AM 21.9 °F 9.2 °F 17.1 °F 82% 30.40 in 5.0 mi WNW 13.8 mph - 0.00 in Snow Light Snow
2:53 AM 21.0 °F 9.3 °F 17.1 °F 85% 30.43 in 5.0 mi WNW 11.5 mph - 0.00 in Snow Light Snow
3:13 AM 19.9 °F 7.9 °F 15.1 °F 81% 30.40 in 6.0 mi NW 11.5 mph - 0.00 in Snow Light Snow
3:53 AM 19.9 °F 8.6 °F 12.9 °F 74% 30.41 in 9.0 mi NNW 10.4 mph - 0.00 in   Overcast
4:53 AM 18.0 °F 7.7 °F 10.9 °F 74% 30.43 in 10.0 mi WNW 8.1 mph - N/A   Scattered Clouds
5:53 AM 14.0 °F 3.9 °F 9.0 °F 80% 30.45 in 10.0 mi WNW 6.9 mph - N/A   Partly Cloudy
6:53 AM 10.0 °F - 7.0 °F 87% 30.46 in 10.0 mi Calm Calm - N/A   Clear
7:53 AM 7.0 °F - 3.0 °F 84% 30.47 in 10.0 mi Calm Calm - N/A   Clear
8:53 AM 14.0 °F - 12.0 °F 92% 30.48 in 10.0 mi Calm Calm - N/A   Clear
9:53 AM 18.0 °F 12.7 °F 12.0 °F 78% 30.50 in 10.0 mi West 3.5 mph - N/A   Overcast
10:39 AM 19.9 °F - 12.9 °F 74% 30.47 in 10.0 mi Calm Calm - N/A   Overcast
10:53 AM 21.9 °F 15.7 °F 12.9 °F 68% 30.50 in 10.0 mi WSW 4.6 mph - N/A   Overcast
11:53 AM 23.0 °F 17.0 °F 12.9 °F 65% 30.50 in 10.0 mi WSW 4.6 mph - N/A   Mostly Cloudy
12:03 PM 24.1 °F 17.0 °F 12.9 °F 62% 30.46 in 10.0 mi WSW 5.8 mph - N/A   Mostly Cloudy
12:16 PM 24.1 °F 17.0 °F 14.0 °F 65% 30.46 in 10.0 mi WSW 5.8 mph - N/A   Overcast
12:53 PM 24.1 °F 19.7 °F 14.0 °F 65% 30.46 in 10.0 mi Variable 3.5 mph - N/A   Overcast
1:53 PM 25.0 °F 16.3 °F 14.0 °F 63% 30.43 in 10.0 mi WSW 8.1 mph - N/A   Overcast
2:32 PM 25.0 °F 16.3 °F 14.0 °F 63% 30.39 in 10.0 mi West 8.1 mph - N/A   Overcast
2:53 PM 24.1 °F 14.4 °F 14.0 °F 65% 30.43 in 9.0 mi West 9.2 mph 17.3 mph N/A   Overcast
3:18 PM 23.0 °F 11.1 °F 12.9 °F 65% 30.40 in 10.0 mi WNW 12.7 mph 18.4 mph N/A   Overcast
3:53 PM 23.0 °F 11.7 °F 12.9 °F 65% 30.43 in 10.0 mi WNW 11.5 mph - N/A   Overcast
4:06 PM 23.0 °F 14.7 °F 12.9 °F 65% 30.40 in 10.0 mi West 6.9 mph - N/A   Overcast
4:50 PM 21.2 °F 10.9 °F 10.4 °F 63% 30.40 in 10.0 mi West 9.2 mph - N/A   Scattered Clouds
4:53 PM 21.0 °F 9.9 °F 10.9 °F 65% 30.43 in 10.0 mi WNW 10.4 mph - N/A   Partly Cloudy
5:53 PM 19.0 °F 9.0 °F 10.0 °F 68% 30.43 in 10.0 mi NW 8.1 mph - N/A   Scattered Clouds
6:53 PM 18.0 °F 9.8 °F 9.0 °F 68% 30.44 in 10.0 mi WNW 5.8 mph - N/A   Overcast
7:53 PM 17.1 °F 5.0 °F 9.0 °F 71% 30.46 in 10.0 mi WNW 10.4 mph - N/A   Overcast
8:30 PM 15.1 °F 3.3 °F 7.0 °F 70% 30.43 in 10.0 mi WNW 9.2 mph - N/A   Overcast
8:53 PM 14.0 °F 1.2 °F 6.1 °F 71% 30.47 in 10.0 mi NW 10.4 mph - N/A   Overcast
9:40 PM 12.9 °F 0.7 °F 3.0 °F 65% 30.44 in 10.0 mi NW 9.2 mph - N/A   Overcast
9:53 PM 12.0 °F -1.3 °F 1.9 °F 64% 30.48 in 10.0 mi NW 10.4 mph - N/A   Overcast
10:18 PM 12.0 °F 0.5 °F 1.9 °F 64% 30.44 in 10.0 mi WNW 8.1 mph - N/A   Scattered Clouds
10:53 PM 9.0 °F 0.6 °F -0.0 °F 67% 30.47 in 10.0 mi NW 4.6 mph - N/A   Clear
11:53 PM 8.1 °F -5.3 °F -2.0 °F 64% 30.47 in 10.0 mi WNW 9.2 mph - 0.00 in   Clear